Weather in Troyekurovo

Russia / Lipetsk Oblast     52°58′30″N   38°58′32″E
temp.,
°C
wind,
m/s
gust,
m/s
humid.,
%
clouds,
%
prec.,
mm/h
press.,
hPa
HPBL,
m
24 january, mon
mon2400:00−13nne49100100 0.0 1032123
03:00−12ne5129796 0.1 1032215
06:00−11nne5149491 0.0 1032258
09:00−10nne6149499 0.1 1033327
12:00−9ne5119492 0.1 1032308
15:00−8ne5109498 0.2 1031320
18:00−11nne499772 0.0 1032139
21:00−13ne389988 0.0 1032119
25 january, tue
tue2500:00−16ne369817 0.0 103065
03:00−20nne2210063 0.0 103015
06:00−22nne2210080 0.0 102912
09:00−22e2210078 0.0 102817
12:00−13e1194100 0.0 1025109
15:00−10s1293100 0.1 1023158
18:00−13wsw2298100 0.0 102118
21:00−13sw2397100 0.1 102063
26 january, wed
wed2600:00−14sw2496100 0.0 101971
03:00−11wsw2595100 0.0 1018187
06:00−14wsw2495100 0.0 101873
09:00−20sw2210050 0.0 101938
12:00−12sw3590100 0.0 1018165
15:00−9sw4693100 0.1 1018274
18:00−10sw369691 0.0 1018110
21:00−13sw239875 0.1 101940
27 january, thu
thu2700:00−16wsw2210092 0.1 102016
03:00−17wsw2210095 0.1 102010
06:00−18sw2210095 0.1 102013
09:00−15wsw229785 0.1 102053
12:00−10sw349367 0.0 1019167
15:00−10ssw3695100 0.1 1018224
18:00−13s3698100 0.0 101883
21:00−14s3997100 0.0 1017138
28 january, fri
fri2800:00−14s399757 0.0 1016145
03:00−16s4119990 0.0 1015155
06:00−13s51396100 0.0 1013245
09:00−12sse61592100 0.0 1012292
12:00−8sse71494100 0.1 1009409
15:00−6sse71495100 0.9 1007533
18:00−6s61395100 0.9 1005469
21:00−5s5119599 1.3 1004302